Meteo Giornale » Osservazioni meteo Serbia » Nis

ore: 21:30 - Osservazioni Meteo Nis
Lat. 43° 20' N Lon. 21° 54' E Alt. 202 metri s.l.m.

sereno

26 °C

Sereno

Temp. 24 Ore

24 °C

31 °C

Nord-Ovest

16.7 Km/h

Dew point 12 °C

Umidità 41 %

Visibilità  10 Km

Il sole sorge alle ore 05:56

Il sole tramonta alle ore 19:08

Data e Ora Cielo e Fenomeni T °C DP °C Um. % Pres. hPa Vis. km Vento km/h
Oggi h: 21:30 sereno Sereno 26 12 41 1018 10 NO 16.7
Oggi h: 21:00 sereno Sereno 26 12 41 1018 10 N/NO 18.5
Oggi h: 20:30 sereno Sereno 27 13 42 1018 10 NO 14.8
Oggi h: 20:00 sereno Sereno 27 13 42 1017 10 N/NO 16.7
Oggi h: 19:30 sereno Sereno 28 13 39 1017 10 NO 18.5
Oggi h: 19:00 sereno Sereno 29 13 37 1017 10 NO 20.3
Oggi h: 18:30 sereno Sereno 29 14 39 1017 10 NO 22.2
Oggi h: 18:00 sereno Sereno 30 14 37 1017 10 NO 24
Oggi h: 17:30 sereno Sereno 31 15 37 1017 10 NO 29.6
Oggi h: 17:00 sereno Sereno 31 15 37 1017 10 NO 27.8
Oggi h: 16:30 sereno Sereno 31 15 37 1017 10 N/NO 27.8
Oggi h: 16:00 sereno Sereno 31 15 37 1017 10 NO 31.5
Oggi h: 15:30 sereno Sereno 31 15 37 1017 10 NO 33.3
Oggi h: 15:00 sereno Sereno 31 15 37 1017 10 N/NO 33.3
Oggi h: 14:30 sereno Sereno 31 15 37 1018 10 N/NO 35.2
Oggi h: 14:00 sereno Sereno 31 16 40 1018 10 NO 31.5
Oggi h: 13:30 sereno Sereno 31 16 40 1018 10 NO 27.8
Oggi h: 13:00 sereno Sereno 30 17 45 1018 10 NO 29.6
Oggi h: 12:30 sereno Sereno 30 17 45 1018 10 NO 33.3
Oggi h: 12:00 sereno Sereno 30 16 42 1018 10 N/NO 29.6
Oggi h: 11:30 sereno Sereno 29 16 45 1018 10 NO 25.9
Oggi h: 11:00 sereno Sereno 29 16 45 1018 10 NO 22.2
Oggi h: 10:30 sereno Sereno 28 16 48 1018 10 N/NO 18.5
Oggi h: 10:00 sereno Sereno 28 16 48 1018 10 NO 20.3
Oggi h: 09:30 sereno Sereno 27 16 50 1017 10 N/NO 24
Oggi h: 09:00 sereno Sereno 26 16 54 1017 10 N/NO 20.3
Oggi h: 08:30 sereno Sereno 25 16 57 1017 10 N/NO 20.3
Oggi h: 08:00 sereno Sereno 24 15 57 1017 10 N/NO 22.2
Oggi h: 07:30 sereno Sereno 25 13 47 1016 10 N 5.5
Oggi h: 07:00 sereno Sereno 25 11 41 1015 10 SE 13
Oggi h: 06:30 sereno Sereno 25 11 41 1015 10 E 22.2
Oggi h: 06:00 sereno Sereno 25 12 44 1015 10 E 16.7
Oggi h: 05:30 sereno Sereno 25 13 47 1015 10 E 18.5
Oggi h: 05:00 sereno Sereno 26 12 41 1015 10 E 16.7
Oggi h: 04:30 sereno Sereno 26 13 44 1014 10 E/SE 14.8
Oggi h: 04:00 sereno Sereno 27 12 39 1014 10 E/SE 7.4
Oggi h: 03:30 sereno Sereno 26 13 44 1015 10 E 7.4
Oggi h: 03:00 sereno Sereno 26 13 44 1015 10 N/NO 13
Oggi h: 02:30 sereno Sereno 24 14 53 1014 10 NO 9.3
Oggi h: 02:00 sereno Sereno 26 14 47 1014 10 N 0
Oggi h: 01:30 sereno Sereno 25 15 53 1014 10 S/SE 7.4
Oggi h: 01:00 sereno Sereno 25 14 50 1014 10 N 5.5
Oggi h: 00:30 sereno Sereno 26 15 50 1014 10 N 5.5
Oggi h: 00:00 sereno Sereno 28 14 42 1014 10 E 9.3
Ieri h: 23:30 sereno Sereno 28 14 42 1014 10 N 3.7
Ieri h: 23:00 sereno Sereno 28 13 39 1014 10 N 3.7